Location: Pl�tzky
(52.0521°N, 11.8020°E)
Time: 04:40:26
(UTC+00:00)

Cosmos 1844 Rocket - Pass Details

Date: 22 November 2019
Orbit: 826 x 843 km, 71.0° (Epoch: 15 December)

Event Time Altitude Azimuth Distance (km) Brightness Sun altitude
Rises 16:00:00 0° 327° (NNW) 3,380 6.0 -7.2°
Reaches altitude 10° 16:03:22 10° 347° (NNW) 2,442 5.0 -7.7°
Maximum altitude 16:06:58 17° 27° (NNE) 1,985 4.2 -8.2°
Enters shadow 16:10:20 11° 66° (ENE) 2,390 4.4 -8.7°
